WA3JKB Weather Reports


time (UTC)temp
C
wind
direction
speed
KPH
gust
KPH
rain 1hr
cm
rain 24hr
cm
rain mn
cm
humidity
%
barometer
mb
20260504140516 15 248 1.6 11.3 0.00 0.00 0.00 58 1014.7
20260504130516 12 293 3.2 8.0 0.00 0.00 0.00 72 1015.2
20260504110516 7 0.0 3.2 0.00 0.00 0.00 75 1015.5
20260504100517 7 0.0 4.8 0.00 0.00 0.00 72 1015.7
20260504081516 6 156 0.0 0.0 0.00 0.00 0.00 69 1015.6
20260504080516 6 156 0.0 0.0 0.00 0.00 0.00 69 1015.5
20260504050515 6 129 0.0 0.0 0.00 0.00 0.00 68 1015.5
20260504045515 6 129 0.0 0.0 0.00 0.00 0.00 67 1015.4
20260504044516 6 129 0.0 0.0 0.00 0.00 0.00 66 1015.5
20260504043516 6 129 0.0 0.0 0.00 0.00 0.00 67 1015.4
20260504042515 7 129 0.0 0.0 0.00 0.00 0.00 66 1015.2
20260504041516 7 129 0.0 0.0 0.00 0.00 0.00 64 1015.1
20260504040516 7 129 0.0 0.0 0.00 0.00 0.00 62 1015.1
20260504035516 8 129 0.0 0.0 0.00 0.00 0.00 59 1015.0
20260504034515 8 0.0 1.6 0.00 0.00 0.00 58 1015.0
20260504033516 8 0.0 1.6 0.00 0.00 0.00 57 1015.0
20260504032515 8 0.0 1.6 0.00 0.00 0.00 56 1014.9
20260504031516 9 0.0 1.6 0.00 0.00 0.00 54 1014.8
20260504030516 9 142 0.0 0.0 0.00 0.00 0.00 53 1014.8
20260504025515 9 0.0 1.6 0.00 0.00 0.00 54 1014.7
20260504024516 10 0.0 1.6 0.00 0.00 0.00 52 1014.9
20260504023516 10 0.0 1.6 0.00 0.00 0.00 52 1014.9
20260504022516 10 0.0 1.6 0.00 0.00 0.00 51 1014.9
20260504021516 10 0.0 1.6 0.00 0.00 0.00 51 1014.8
20260504020515 10 138 0.0 0.0 0.00 0.00 0.00 51 1014.8
20260504015520 10 0.0 1.6 0.00 0.00 0.00 51 1014.8
20260504014516 10 0.0 1.6 0.00 0.00 0.00 50 1014.7
20260504013516 11 0.0 1.6 0.00 0.00 0.00 49 1014.5
20260504012515 11 237 0.0 0.0 0.00 0.00 0.00 48 1014.5
20260504011515 11 0.0 1.6 0.00 0.00 0.00 48 1014.4
20260504010515 11 0.0 3.2 0.00 0.00 0.00 48 1014.3
20260504005515 11 238 0.0 0.0 0.00 0.00 0.00 48 1014.3
20260504004515 11 0.0 1.6 0.00 0.00 0.00 47 1014.2
20260504003517 12 0.0 1.6 0.00 0.00 0.00 46 1014.0
20260504002518 12 0.0 1.6 0.00 0.00 0.00 44 1013.8
20260504001517 13 0.0 1.6 0.00 0.00 0.00 42 1013.8
20260504000517 13 248 1.6 11.3 0.00 0.00 0.00 40 1013.7
20260503235518 13 0.0 4.8 0.00 0.00 0.00 39 1013.6
20260503234515 14 270 1.6 6.4 0.00 0.00 0.00 38 1013.5
20260503233517 14 0.0 3.2 0.00 0.00 0.00 38 1013.4
20260503232517 15 293 3.2 8.0 0.00 0.00 0.00 36 1013.4
20260503231517 15 270 1.6 6.4 0.00 0.00 0.00 36 1013.4
20260503230517 15 248 3.2 19.3 0.00 0.00 0.00 35 1013.4
20260503225517 15 270 3.2 11.3 0.00 0.00 0.00 35 1013.3
20260503224518 15 248 1.6 11.3 0.00 0.00 0.00 34 1013.2
20260503223517 16 270 1.6 6.4 0.00 0.00 0.00 34 1013.2
20260503222517 16 270 3.2 11.3 0.00 0.00 0.00 34 1013.2
20260503221518 15 270 6.4 14.5 0.00 0.00 0.00 34 1013.3
20260503220517 16 293 4.8 14.5 0.00 0.00 0.00 33 1013.3
20260503215517 15 248 4.8 16.1 0.00 0.00 0.00 33 1013.3
20260503214518 15 293 4.8 11.3 0.00 0.00 0.00 33 1013.3
20260503213517 15 270 6.4 14.5 0.00 0.00 0.00 32 1013.4
20260503212518 16 270 4.8 11.3 0.00 0.00 0.00 32 1013.3
20260503211518 15 270 4.8 11.3 0.00 0.00 0.00 33 1013.2
20260503210518 16 270 4.8 16.1 0.00 0.00 0.00 33 1013.2
20260503205517 15 270 4.8 16.1 0.00 0.00 0.00 32 1013.3
20260503204517 15 270 4.8 12.9 0.00 0.00 0.00 33 1013.2
20260503203517 15 45 4.8 14.5 0.00 0.00 0.00 34 1013.3
20260503202517 15 45 3.2 11.3 0.00 0.00 0.00 37 1013.3
20260503201517 14 270 6.4 14.5 0.00 0.00 0.00 36 1013.6
20260503200517 14 270 6.4 20.9 0.00 0.00 0.00 34 1013.5
20260503195517 14 293 8.0 19.3 0.00 0.00 0.00 36 1013.6
20260503194518 14 293 8.0 19.3 0.00 0.00 0.00 36 1013.7
20260503193518 15 270 4.8 16.1 0.00 0.00 0.00 33 1013.9
20260503192517 14 293 9.7 24.1 0.00 0.00 0.00 37 1014.0
20260503191517 13 270 8.0 27.4 0.00 0.00 0.00 35 1013.9
20260503190517 13 293 3.2 9.7 0.00 0.00 0.00 37 1013.9
20260503185516 13 293 8.0 20.9 0.00 0.00 0.00 35 1014.2
20260503184518 13 248 4.8 14.5 0.00 0.00 0.00 37 1014.2
20260503183517 13 293 3.2 14.5 0.00 0.00 0.00 37 1014.2
20260503182517 13 90 4.8 14.5 0.00 0.00 0.00 37 1014.4
20260503181517 13 270 4.8 12.9 0.00 0.00 0.00 38 1014.2
20260503180516 13 45 4.8 12.9 0.00 0.00 0.00 35 1014.4
20260503175517 12 248 3.2 12.9 0.00 0.00 0.00 39 1014.5
20260503174518 12 270 6.4 22.5 0.00 0.00 0.00 38 1014.4
20260503173517 11 293 4.8 20.9 0.00 0.00 0.00 37 1014.5
20260503172516 12 293 4.8 11.3 0.00 0.00 0.00 37 1014.6
20260503171516 12 293 3.2 12.9 0.00 0.00 0.00 37 1014.6
20260503170516 12 23 1.6 9.7 0.00 0.00 0.00 40 1014.8
20260503150517 10 45 4.8 9.7 0.00 0.00 0.00 48 1015.4